{"data":{"norad_id":63952,"epoch":"2026-05-25T04:42:34.989120Z","epoch_age_seconds":48328,"freshness":"FRESH","line1":"1 63952U 25099A   26145.19623830  .00010222  00000+0  38036-3 0  9999","line2":"2 63952  43.0005 104.4460 0001021 264.1722  95.9013 15.27589554 59020","mean_motion":15.27589554,"eccentricity":0.0001021,"inclination_deg":43.0005,"raan_deg":104.446,"arg_perigee_deg":264.1722,"mean_anomaly_deg":95.9013,"bstar":0.00038036,"rev_number":5902,"period_min":94.266159141332,"perigee_km":482.31996389619,"apogee_km":483.72101225526,"semimajor_km":6861.1574880757,"source":"CELESTRAK","updated_at":"2026-05-25T13:38:20.210334Z"}}